Date String (YYYY-MM-DD hh:mm:ss) UTC,Instrument flags,Ambient pressure (hPa),Sample flow (lpm),Bypass flow (lpm),Sample temperature (°C),Ambient temperature (°C),ASC tube jacket temperature (°C),LED temperature (°C),Box temperature (°C),Sample RH (%),Span deviation,Mass concentration (μg/m³),Mass concentration (μg/m³),Mass concentration (μg/m³)
DateTimeUTC,F1_M11,P_M11,Q1_M11,Q2_M11,T1_M11,T2_M11,T3_M11,T4_M11,T5_M11,U1_M11,ZSPAN_M11,X0_M11,X2_M11,X1_M11
2022-01-20 16:00:00,,0831.4,5.00,0.00,21.4,20.5,00.0,30.6,22.9,10.9,0000.8,0016.82,0013.16,0012.37
2022-01-20 16:01:00,,0831.5,4.98,0.00,21.3,20.6,00.0,30.5,22.8,10.9,0000.4,0017.01,0013.25,0012.43
2022-01-20 16:02:00,,0831.6,5.00,0.00,21.4,21.4,00.0,30.6,23.1,10.9,0000.3,0017.23,0013.30,0012.44
2022-01-20 16:03:00,,0831.6,5.00,0.00,21.6,22.3,00.0,30.6,23.4,10.8,0000.4,0017.40,0013.36,0012.43
2022-01-20 16:04:00,,0831.5,4.99,0.00,21.7,22.8,00.0,30.6,23.7,10.7,0000.2,0017.37,0013.36,0012.43
2022-01-20 16:05:00,,0831.4,5.01,0.00,21.8,22.6,00.0,30.7,23.7,10.6,0000.2,0017.30,0013.34,0012.44
2022-01-20 16:06:00,,0831.4,5.00,0.00,21.8,22.3,00.0,30.7,23.7,10.6,0000.3,0017.47,0013.40,0012.48
2022-01-20 16:07:00,,0831.4,5.00,0.00,21.8,22.1,00.0,30.7,23.6,10.6,0000.5,0017.43,0013.40,0012.46
2022-01-20 16:08:00,,0831.4,4.99,0.00,21.8,21.9,00.0,30.7,23.6,10.7,0000.3,0017.05,0013.38,0012.45
2022-01-20 16:09:00,,0831.4,5.00,0.00,21.8,21.8,00.0,30.7,23.5,10.7,0000.4,0017.16,0013.42,0012.46
2022-01-20 16:10:00,,0831.4,5.01,0.00,21.8,21.6,00.0,30.7,23.5,10.7,0000.3,0017.24,0013.45,0012.48
2022-01-20 16:11:00,,0831.4,4.99,0.00,21.8,21.5,00.0,30.7,23.5,10.7,0000.1,0017.49,0013.50,0012.51
2022-01-20 16:12:00,,0831.4,5.00,0.00,21.8,21.4,00.0,30.7,23.5,10.8,0000.3,0017.82,0013.66,0012.58
2022-01-20 16:13:00,,0831.5,5.01,0.00,21.8,21.4,00.0,30.7,23.5,10.8,0000.4,0017.92,0013.77,0012.70
2022-01-20 16:14:00,,0831.6,4.99,0.00,21.8,21.3,00.0,30.7,23.4,10.9,0000.6,0018.26,0013.93,0012.81
2022-01-20 16:15:00,,0831.5,4.99,0.00,21.7,21.2,00.0,30.7,23.4,10.9,0000.6,0018.83,0014.02,0012.86
2022-01-20 16:16:00,,0831.4,5.01,0.00,21.7,21.2,00.0,30.7,23.4,10.9,0000.6,0019.16,0014.15,0012.92
2022-01-20 16:17:00,,0831.4,5.00,0.00,21.7,21.2,00.0,30.7,23.4,10.9,0000.5,0019.60,0014.27,0012.99
2022-01-20 16:18:00,,0831.4,4.99,0.00,21.7,21.2,00.0,30.7,23.4,11.0,0000.4,0020.57,0014.44,0013.11
2022-01-20 16:19:00,,0831.4,5.01,0.00,21.7,21.2,00.0,30.7,23.4,11.0,0000.4,0020.94,0014.64,0013.24
2022-01-20 16:20:00,,0831.4,5.00,0.00,21.8,21.7,00.0,30.7,23.5,11.1,0000.3,0021.13,0014.83,0013.34
2022-01-20 16:21:00,,0831.4,4.99,0.00,21.9,22.6,00.0,30.8,23.8,11.0,0000.3,0021.56,0015.02,0013.42
2022-01-20 16:22:00,,0831.4,4.99,0.00,22.1,23.1,00.0,30.8,24.1,10.9,0000.4,0021.68,0015.15,0013.49
2022-01-20 16:23:00,,0831.4,5.01,0.00,22.1,22.9,00.0,30.8,24.1,10.9,0000.2,0021.79,0015.23,0013.55
2022-01-20 16:24:00,,0831.4,4.99,0.00,22.2,22.6,00.0,30.9,24.1,10.9,0000.1,0022.17,0015.34,0013.60
2022-01-20 16:25:00,,0831.4,5.00,0.00,22.2,22.4,00.0,30.9,24.0,11.0,-000.1,0022.69,0015.44,0013.69
2022-01-20 16:26:00,,0831.4,5.02,0.00,22.1,22.2,00.0,30.9,23.9,11.0,-000.1,0022.49,0015.59,0013.81
2022-01-20 16:27:00,,0831.4,4.99,0.00,22.1,21.9,00.0,30.9,23.9,11.0,-000.2,0022.51,0015.65,0013.91
2022-01-20 16:28:00,,0831.4,5.00,0.00,22.1,21.8,00.0,30.9,23.8,11.0,-000.0,0022.34,0015.70,0013.96
2022-01-20 16:29:00,,0831.3,5.01,0.00,22.0,21.6,00.0,30.9,23.7,11.0,0000.1,0021.76,0015.76,0013.99
2022-01-20 16:30:00,,0831.4,4.99,0.00,22.0,21.5,00.0,30.9,23.6,11.1,0000.1,0021.67,0015.74,0013.98
2022-01-20 16:31:00,,0831.3,5.00,0.00,22.0,21.4,00.0,30.9,23.6,11.1,0000.0,0021.50,0015.69,0014.00
2022-01-20 16:32:00,,0831.3,5.00,0.00,21.9,21.3,00.0,30.9,23.6,11.2,0000.1,0022.17,0015.75,0014.04
2022-01-20 16:33:00,,0831.3,5.01,0.00,21.9,21.3,00.0,30.9,23.5,11.2,0000.1,0022.35,0015.82,0014.08
2022-01-20 16:34:00,,0831.4,5.01,0.00,21.9,21.2,00.0,30.9,23.5,11.3,0000.3,0022.37,0015.81,0014.08
2022-01-20 16:35:00,,0831.4,5.00,0.00,21.8,21.2,00.0,30.9,23.5,11.3,0000.3,0022.28,0015.75,0014.06
2022-01-20 16:36:00,,0831.4,5.01,0.00,21.8,21.1,00.0,30.8,23.5,11.4,0000.4,0021.80,0015.75,0014.08
2022-01-20 16:37:00,,0831.4,4.99,0.00,21.8,21.1,00.0,30.8,23.4,11.4,0000.6,0021.75,0015.72,0014.08
2022-01-20 16:38:00,,0831.4,5.02,0.00,21.8,21.1,00.0,30.8,23.4,11.4,0000.7,0021.79,0015.74,0014.07
2022-01-20 16:39:00,,0831.3,5.00,0.00,21.8,21.1,00.0,30.8,23.4,11.5,0000.5,0021.90,0015.79,0014.09
2022-01-20 16:40:00,,0831.2,5.00,0.00,21.8,21.9,00.0,30.8,23.6,11.4,0000.3,0021.85,0015.78,0014.10
2022-01-20 16:41:00,,0831.2,4.99,0.00,22.0,22.8,00.0,30.9,23.9,11.4,0000.4,0021.90,0015.76,0014.08
2022-01-20 16:42:00,,0831.3,4.99,0.00,22.1,23.0,00.0,30.9,24.1,11.2,0000.6,0021.96,0015.69,0014.01
2022-01-20 16:43:00,,0831.2,5.00,0.00,22.1,22.6,00.0,30.9,24.0,11.2,0000.4,0021.31,0015.59,0013.92
2022-01-20 16:44:00,,0831.2,4.99,0.00,22.1,22.3,00.0,30.9,23.9,11.2,0000.4,0020.98,0015.43,0013.83
2022-01-20 16:45:00,,0831.2,4.99,0.00,22.1,22.0,00.0,30.9,23.9,11.2,0000.3,0021.12,0015.39,0013.78
2022-01-20 16:46:00,,0831.2,5.02,0.00,22.1,21.8,00.0,30.9,23.8,11.3,0000.4,0021.07,0015.40,0013.79
2022-01-20 16:47:00,,0831.2,4.99,0.00,22.0,21.7,00.0,30.9,23.8,11.3,0000.4,0020.99,0015.34,0013.73
2022-01-20 16:48:00,,0831.2,4.99,0.00,22.0,21.6,00.0,30.9,23.7,11.3,0000.3,0021.10,0015.35,0013.69
2022-01-20 16:49:00,,0831.2,5.00,0.00,22.0,21.5,00.0,30.9,23.7,11.3,0000.3,0021.18,0015.35,0013.66
2022-01-20 16:50:00,,0831.2,5.01,0.00,22.0,21.5,00.0,30.9,23.7,11.3,0000.0,0021.20,0015.33,0013.62
2022-01-20 16:51:00,,0831.2,5.00,0.00,22.0,21.4,00.0,30.9,23.7,11.4,0000.0,0021.13,0015.32,0013.60
2022-01-20 16:52:00,,0831.2,4.98,0.00,21.9,21.4,00.0,30.9,23.6,11.5,0000.0,0021.19,0015.33,0013.61
2022-01-20 16:53:00,,0831.3,5.01,0.00,21.9,21.3,00.0,30.9,23.6,11.5,-000.1,0021.18,0015.39,0013.65
2022-01-20 16:54:00,,0831.4,5.01,0.00,21.9,21.2,00.0,30.9,23.6,11.5,-000.0,0021.01,0015.37,0013.69
2022-01-20 16:55:00,,0831.3,4.99,0.00,21.8,21.1,00.0,30.9,23.5,11.5,-000.1,0021.10,0015.42,0013.71
2022-01-20 16:56:00,,0831.2,5.00,0.00,21.8,21.1,00.0,30.8,23.4,11.6,-000.1,0020.87,0015.42,0013.72
2022-01-20 16:57:00,,0831.1,5.01,0.00,21.8,21.0,00.0,30.8,23.4,11.6,-000.1,0020.75,0015.40,0013.69
2022-01-20 16:58:00,,0831.2,4.99,0.00,21.7,20.9,00.0,30.8,23.3,11.7,-000.2,0020.74,0015.36,0013.63
2022-01-20 16:59:00,,0831.2,5.01,0.00,21.8,21.7,00.0,30.8,23.5,11.6,-000.3,0020.40,0015.23,0013.58
